Notices

What's New in latest Release from April 7th, 2021:

- Updated Glossary, including Speed of Maximum Gust, and Total Hourly Precipitation

- Updated national and regional climate services offices contacts and prices information

- Addition of station inventory lists for 1981-2010, 1971-2000, and 1961-1990 Normals.

If you haven't already, please take our survey and provide feedback about our website: https://eccc.sondage-survey.ca/f/LanguageSelection.aspx?s=442ca660-fcf1-47c0-95a9-59707d6fd709

Hourly Data Report for April 16, 2021

KUGAARUK CLIMATE
NUNAVUT
Current Station Operator: ECCC - MSC

68°32'15.060" N
89°47'47.020" W
15.80 m
2303094
71407
NBB

Download Data

Hourly Data (April 2021)
Hourly Data Report for April 16, 2021
TIME
LST
Temp Definition
°C
Dew Point Definition
°C
Rel Hum Definition
%
Precip. Amount Definition
mm

Wind Dir Definition
10's deg

Wind Spd Definition
km/h
Visibility Definition
km
Stn Press Definition
kPa
Hmdx Definition


Wind Chill Definition


Weather Definition


00:00 -28.6 -31.4 77 0.0   0   102.87     LegendNANA
01:00 -28.7 -31.6 76 0.0   0   102.84     LegendNANA
02:00 -30.3 -33.3 75 0.0 0 1   102.81   -31 LegendNANA
03:00 -30.2 -33.1 76 0.0 25 6   102.78   -37 LegendNANA
04:00 -28.2 -31.1 76 1.1 25 16   102.72   -40 LegendNANA
05:00 -26.6 -29.5 76 0.0 24 13   102.67   -36 LegendNANA
06:00 -25.1 -28.1 76 0.0 26 13   102.61   -35 LegendNANA
07:00 -23.7 -26.7 76 0.0 26 14   102.55   -33 LegendNANA
08:00 -23.0 -26.1 75 0.0 26 15   102.50   -33 LegendNANA
09:00 -21.3 -24.5 75 0.0 25 18   102.44   -32 LegendNANA
10:00 -20.3 -23.5 75 0.0 25 22   102.40   -31 LegendNANA
11:00 -19.4 -22.6 76 0.0 25 22   102.36   -30 LegendNANA
12:00 -18.6 -21.7 76 0.0 25 18   102.32   -28 LegendNANA
13:00 -17.6 -20.7 77 0.0 25 23   102.25   -28 LegendNANA
14:00 -17.1 -20.1 77 0.0 26 20   102.19   -27 LegendNANA
15:00 -17.0 -20.1 76 0.0 25 20   102.15   -27 LegendNANA
16:00 -17.0 -20.5 74 0.0 26 19   102.11   -26 LegendNANA
17:00 -16.1 -19.9 73 0.0 25 25   102.03   -27 LegendNANA
18:00 -15.0 -20.4 64 0.0 25 28   102.00   -26 LegendNANA
19:00 -16.2 -20.8 68 0.0 26 24   101.97   -27 LegendNANA
20:00 -15.9 -21.1 64 0.0 25 26   101.94   -27 LegendNANA
21:00 -17.4 -22.2 66 0.0 25 12   101.92   -25 LegendNANA
22:00 -18.4 -23.0 67 0.0 26 22   101.86   -29 LegendNANA
23:00 -18.2 -22.4 70 0.0 25 25   101.81   -29 LegendNANA

Notes on Data Quality.

Legend

  • E = Estimated
  • M = Missing
  • NA = Not Available*
  • [empty] = Indicates an unobserved value
Date modified: